When you browse on this site, cookies collect data to enhance your experience and personalize the content and advertising you see.
Visit our Privacy Policy to learn more. By continuing to use the site, you agree to this use of cookies and data.
  • Em Portugal
  • Lista de países
  • Para 7 dias
  • Temperatura da água
  • Mapas de satélite
  • Mapa do tempo
  • Widgets de tempo
  • user-avatar
    Iniciar Sessão

    Previsão horária em Bruk

    Hoje, 19 Fevereiro, Terça-feira

    Tempo Temperatura Precipitação Vento Pressão Humidade
    00:00 +3°C° 0 mm 4 m/s 757 mmHg 86%
    01:00 +2°C° 0 mm 3 m/s 757 mmHg 87%
    02:00 +2°C° 0 mm 3 m/s 756 mmHg 86%
    03:00 +2°C° 0 mm 3 m/s 756 mmHg 85%
    04:00 +2°C° 0 mm 3 m/s 755 mmHg 85%
    05:00 0°C° 0 mm 4 m/s 755 mmHg 84%
    06:00 0°C° 0 mm 4 m/s 754 mmHg 84%
    07:00 0°C° 0 mm 4 m/s 754 mmHg 84%
    08:00 +2°C° 0 mm 5 m/s 754 mmHg 79%
    09:00 +3°C° 0 mm 5 m/s 753 mmHg 75%
    10:00 +4°C° 0 mm 6 m/s 753 mmHg 70%
    11:00 +5°C° 0 mm 6 m/s 753 mmHg 68%
    12:00 +7°C° 0 mm 6 m/s 753 mmHg 67%
    13:00 +8°C° 0 mm 6 m/s 752 mmHg 66%
    14:00 +8°C° 0.1 mm 6 m/s 753 mmHg 69%
    15:00 +7°C° 0.1 mm 5 m/s 753 mmHg 73%
    16:00 +7°C° 0.1 mm 5 m/s 753 mmHg 77%
    17:00 +7°C° 0.2 mm 4 m/s 753 mmHg 79%
    18:00 +6°C° 0.2 mm 4 m/s 753 mmHg 81%
    19:00 +5°C° 0.2 mm 4 m/s 753 mmHg 82%
    20:00 +5°C° 0 mm 4 m/s 752 mmHg 82%
    21:00 +5°C° 0 mm 5 m/s 752 mmHg 82%
    22:00 +3°C° 0 mm 5 m/s 752 mmHg 83%
    23:00 +3°C° 0.1 mm 5 m/s 752 mmHg 83%

    Amanhã, 20 Fevereiro, Quarta-feira

    Tempo Temperatura Precipitação Vento Pressão Humidade
    00:00 +3°C° 0.1 mm 5 m/s 752 mmHg 83%
    01:00 +3°C° 0.1 mm 5 m/s 752 mmHg 83%
    02:00 +3°C° 0.1 mm 5 m/s 752 mmHg 82%
    03:00 +3°C° 0.1 mm 6 m/s 752 mmHg 81%
    04:00 +3°C° 0.1 mm 6 m/s 752 mmHg 81%
    05:00 +3°C° 0.1 mm 6 m/s 753 mmHg 80%
    06:00 +2°C° 0.1 mm 6 m/s 753 mmHg 80%
    07:00 +2°C° 0.1 mm 6 m/s 753 mmHg 79%
    08:00 +3°C° 0 mm 6 m/s 754 mmHg 76%
    09:00 +3°C° 0 mm 7 m/s 754 mmHg 73%
    10:00 +2°C° 0 mm 8 m/s 754 mmHg 70%
    11:00 +4°C° 0 mm 8 m/s 755 mmHg 70%
    12:00 +4°C° 0 mm 8 m/s 755 mmHg 69%
    13:00 +4°C° 0 mm 8 m/s 756 mmHg 69%
    14:00 +4°C° 0 mm 7 m/s 756 mmHg 70%
    15:00 +4°C° 0 mm 7 m/s 757 mmHg 72%
    16:00 +3°C° 0 mm 6 m/s 757 mmHg 74%
    17:00 +3°C° 0 mm 5 m/s 758 mmHg 76%
    18:00 +3°C° 0 mm 5 m/s 758 mmHg 78%
    19:00 +3°C° 0 mm 4 m/s 759 mmHg 80%
    20:00 +3°C° 0 mm 3 m/s 759 mmHg 82%
    21:00 +3°C° 0 mm 3 m/s 759 mmHg 83%
    22:00 +3°C° 0 mm 2 m/s 760 mmHg 84%
    23:00 +3°C° 0 mm 2 m/s 760 mmHg 86%

    Depois de amanhã, 21 Fevereiro, Quinta-feira

    Tempo Temperatura Precipitação Vento Pressão Humidade
    00:00 +4°C° 0 mm 1 m/s 760 mmHg 88%
    01:00 +4°C° 0 mm 1 m/s 760 mmHg 90%
    02:00 +4°C° 0.1 mm 1 m/s 760 mmHg 92%
    03:00 +3°C° 0.1 mm 2 m/s 760 mmHg 93%
    04:00 +3°C° 0.1 mm 2 m/s 759 mmHg 95%
    05:00 +3°C° 0.4 mm 2 m/s 759 mmHg 96%
    06:00 +3°C° 0.4 mm 2 m/s 759 mmHg 96%
    07:00 +3°C° 0.4 mm 2 m/s 759 mmHg 97%
    08:00 +4°C° 0.5 mm 2 m/s 759 mmHg 96%
    09:00 +4°C° 0.5 mm 2 m/s 759 mmHg 95%
    10:00 +4°C° 0.5 mm 2 m/s 759 mmHg 95%
    11:00 +5°C° 0.6 mm 2 m/s 759 mmHg 94%
    12:00 +5°C° 0.6 mm 2 m/s 759 mmHg 94%
    13:00 +5°C° 0.6 mm 2 m/s 758 mmHg 93%
    14:00 +5°C° 0.2 mm 2 m/s 758 mmHg 93%
    15:00 +5°C° 0.2 mm 2 m/s 758 mmHg 93%
    16:00 +6°C° 0.2 mm 2 m/s 758 mmHg 93%
    17:00 +5°C° 0.4 mm 2 m/s 758 mmHg 94%
    18:00 +5°C° 0.4 mm 2 m/s 758 mmHg 94%
    19:00 +4°C° 0.4 mm 2 m/s 758 mmHg 95%
    20:00 +2°C° 1 mm 3 m/s 759 mmHg 93%
    21:00 0°C° 1 mm 5 m/s 760 mmHg 91%
    22:00 -3°C° 1 mm 6 m/s 761 mmHg 88%
    23:00 -3°C° 0 mm 6 m/s 762 mmHg 86%

    22 Fevereiro, Sexta-feira

    Tempo Temperatura Precipitação Vento Pressão Humidade
    00:00 -4°C° 0 mm 6 m/s 763 mmHg 85%
    01:00 -4°C° 0 mm 5 m/s 764 mmHg 83%
    02:00 -5°C° 0 mm 5 m/s 765 mmHg 80%
    03:00 -5°C° 0 mm 5 m/s 765 mmHg 76%
    04:00 -5°C° 0 mm 5 m/s 766 mmHg 73%
    05:00 -6°C° 0 mm 5 m/s 767 mmHg 72%
    06:00 -5°C° 0 mm 4 m/s 768 mmHg 70%
    07:00 -5°C° 0 mm 4 m/s 769 mmHg 69%
    08:00 -5°C° 0 mm 4 m/s 770 mmHg 65%
    09:00 -4°C° 0 mm 4 m/s 771 mmHg 61%
    10:00 -4°C° 0 mm 4 m/s 772 mmHg 57%
    11:00 -3°C° 0 mm 4 m/s 772 mmHg 54%
    12:00 -2°C° 0 mm 3 m/s 773 mmHg 51%
    13:00 -1°C° 0 mm 3 m/s 773 mmHg 49%
    14:00 -2°C° 0 mm 3 m/s 774 mmHg 50%
    15:00 -2°C° 0 mm 3 m/s 774 mmHg 52%
    16:00 -2°C° 0 mm 3 m/s 774 mmHg 54%
    17:00 -3°C° 0 mm 2 m/s 775 mmHg 58%
    18:00 -3°C° 0 mm 2 m/s 775 mmHg 62%
    19:00 -4°C° 0 mm 2 m/s 775 mmHg 66%
    20:00 -2°C° 0 mm 1 m/s 775 mmHg 65%
    21:00 -2°C° 0 mm 1 m/s 775 mmHg 64%
    22:00 -2°C° 0 mm 1 m/s 775 mmHg 63%
    23:00 -2°C° 0 mm 1 m/s 775 mmHg 63%

    23 Fevereiro, Sábado

    Tempo Temperatura Precipitação Vento Pressão Humidade
    00:00 -2°C° 0 mm 1 m/s 775 mmHg 63%
    01:00 -3°C° 0 mm 0 m/s 775 mmHg 63%
    02:00 -2°C° 0 mm 1 m/s 775 mmHg 64%
    03:00 -2°C° 0 mm 1 m/s 775 mmHg 65%
    04:00 -2°C° 0 mm 1 m/s 775 mmHg 66%
    05:00 -2°C° 0 mm 1 m/s 775 mmHg 66%
    06:00 -2°C° 0 mm 1 m/s 775 mmHg 67%
    07:00 -2°C° 0 mm 1 m/s 775 mmHg 68%
    08:00 -1°C° 0 mm 1 m/s 775 mmHg 65%
    09:00 0°C° 0 mm 1 m/s 775 mmHg 61%
    10:00 +1°C° 0 mm 1 m/s 775 mmHg 57%
    11:00 -1°C° 0 mm 2 m/s 774 mmHg 55%
    12:00 +1°C° 0 mm 2 m/s 774 mmHg 53%
    13:00 +1°C° 0 mm 2 m/s 774 mmHg 50%
    14:00 +1°C° 0 mm 2 m/s 773 mmHg 51%
    15:00 +1°C° 0 mm 2 m/s 773 mmHg 52%
    16:00 +2°C° 0 mm 1 m/s 773 mmHg 53%
    17:00 +2°C° 0 mm 1 m/s 773 mmHg 55%
    18:00 +2°C° 0 mm 1 m/s 773 mmHg 58%
    19:00 +1°C° 0 mm 1 m/s 772 mmHg 61%
    20:00 +1°C° 0 mm 1 m/s 772 mmHg 64%
    21:00 +1°C° 0 mm 1 m/s 772 mmHg 67%
    22:00 +1°C° 0 mm 1 m/s 772 mmHg 69%
    23:00 +1°C° 0 mm 1 m/s 772 mmHg 71%

    24 Fevereiro, Domingo

    Tempo Temperatura Precipitação Vento Pressão Humidade
    00:00 +1°C° 0 mm 1 m/s 772 mmHg 72%
    01:00 +1°C° 0 mm 1 m/s 772 mmHg 73%
    02:00 +1°C° 0 mm 1 m/s 773 mmHg 75%
    03:00 +1°C° 0 mm 1 m/s 773 mmHg 77%
    04:00 +1°C° 0 mm 1 m/s 773 mmHg 79%
    05:00 -1°C° 0 mm 2 m/s 773 mmHg 80%
    06:00 -1°C° 0 mm 2 m/s 773 mmHg 80%
    07:00 -1°C° 0 mm 2 m/s 773 mmHg 81%
    08:00 +1°C° 0 mm 2 m/s 773 mmHg 79%
    09:00 +2°C° 0 mm 2 m/s 774 mmHg 76%
    10:00 +2°C° 0 mm 2 m/s 774 mmHg 73%
    11:00 +3°C° 0 mm 2 m/s 774 mmHg 72%
    12:00 +4°C° 0 mm 2 m/s 774 mmHg 71%
    13:00 +5°C° 0 mm 2 m/s 774 mmHg 70%
    14:00 +5°C° 0 mm 2 m/s 774 mmHg 73%
    15:00 +4°C° 0 mm 2 m/s 773 mmHg 76%
    16:00 +4°C° 0 mm 2 m/s 773 mmHg 79%
    17:00 +3°C° 0 mm 2 m/s 773 mmHg 82%
    18:00 +2°C° 0 mm 2 m/s 773 mmHg 85%
    19:00 0°C° 0 mm 3 m/s 773 mmHg 89%
    20:00 0°C° 0 mm 3 m/s 773 mmHg 90%
    21:00 0°C° 0 mm 3 m/s 773 mmHg 91%
    22:00 0°C° 0 mm 3 m/s 772 mmHg 93%
    23:00 +1°C° 0 mm 3 m/s 772 mmHg 93%
    Mostrar mais